Weather History for KATT - April, 2014

Change the Weather History Date:

Saturday, April 26, 2014

  Actual Average Record
Temperature  
Mean Temperature 77 °F 72 °F  
Max Temperature 86 °F 82 °F 97 °F (1988)
Min Temperature 68 °F 62 °F 45 °F (1926)
Degree Days  
Heating Degree Days 0 0  
Month to date heating degree days 49 37  
Since 1 July heating degree days 1771 1536  
Cooling Degree Days 12 7  
Month to date cooling degree days 138 134  
Year to date cooling degree days 222 222  
Growing Degree Days 26 (Base 50)    
Moisture  
Dew Point 66 °F    
Average Humidity 73    
Maximum Humidity 90    
Minimum Humidity 55    
Precipitation  
Precipitation T in 0.09 in 3.00 in (1915)
Month to date precipitation 1.89 1.73  
Year to date precipitation 3.99 8.73  
Snow  
Snow 0.00 in - - ()
Month to date snowfall T  
Since 1 July snowfall 0.2  
Snow Depth 0.00 in    
Sea Level Pressure  
Sea Level Pressure 29.78 in    
Wind  
Wind Speed 8 mph (SSE)    
Max Wind Speed 16 mph    
Max Gust Speed 28 mph    
Visibility 6 miles    
Events Rain    
T = Trace of Precipitation, MM = Missing Value Source: NWS Daily Summary

Daily Weather History Graph

Daily Weather History Graph

Search for Another Location

Airport or City:

Trip Planner

Search our weather history database for the weather conditions in past years. The results will help you decide how hot, cold, wet, or windy it might be!

Date:

Astronomy

Apr. 26, 2014 Rise Set
Actual Time 6:52 AM CDT 8:05 PM CDT
Civil Twilight 6:27 AM CDT 8:30 PM CDT
Nautical Twilight 5:57 AM CDT 9:00 PM CDT
Astronomical Twilight 5:26 AM CDT 9:31 PM CDT
Moon 5:04 AM CDT (4/26) 5:45 PM CDT (4/26)
Length of Visible Light 14h 03m
Length of Day
13h 13m
Waning Crescent, 8% of the Moon is Illuminated
Apr 26
Waning Crescent
Apr 29
New
May 6
First Quarter
May 14
Full
May 21
Last Quarter

Hourly Weather History & Observations

Time (CDT) Temp. Heat Index Dew Point Humidity Pressure Visibility Wind Dir Wind Speed Gust Speed Precip Events Conditions
1:51 AM 69.1 °F - 64.0 °F 84% 29.85 in 10.0 mi SSE 5.8 mph - N/A   Clear
2:33 AM 68.0 °F - 64.9 °F 90% 29.87 in 10.0 mi South 5.8 mph - N/A   Mostly Cloudy
2:51 AM 69.1 °F - 64.9 °F 87% 29.83 in 10.0 mi Variable 4.6 mph - N/A   Overcast
3:51 AM 68.0 °F - 64.0 °F 87% 29.82 in 9.0 mi Variable 5.8 mph - N/A   Overcast
3:58 AM 68.0 °F - 64.0 °F 87% 29.85 in 10.0 mi Variable 5.8 mph - N/A   Overcast
4:51 AM 68.0 °F - 62.1 °F 81% 29.81 in 10.0 mi South 8.1 mph 17.3 mph N/A   Overcast
5:51 AM 69.1 °F - 63.0 °F 81% 29.81 in 8.0 mi Variable 6.9 mph - N/A   Overcast
6:51 AM 69.1 °F - 64.0 °F 84% 29.81 in 9.0 mi South 8.1 mph - N/A   Overcast
7:51 AM 69.1 °F - 64.0 °F 84% 29.81 in 6.0 mi South 8.1 mph - N/A   Haze
8:12 AM 70.0 °F - 64.0 °F 81% 29.85 in 6.0 mi South 5.8 mph - N/A   Haze
8:28 AM 70.0 °F - 64.0 °F 81% 29.85 in 6.0 mi SSE 5.8 mph - N/A   Haze
8:48 AM 69.8 °F - 64.4 °F 83% 29.85 in 4.0 mi Variable 4.6 mph - N/A   Haze
8:51 AM 70.0 °F - 64.0 °F 81% 29.82 in 4.0 mi South 8.1 mph - N/A   Haze
8:58 AM 70.0 °F - 64.0 °F 81% 29.85 in 4.0 mi Variable 6.9 mph - N/A   Haze
9:51 AM 71.1 °F - 66.0 °F 84% 29.82 in 3.0 mi Variable 4.6 mph - N/A   Haze
10:51 AM 71.1 °F - 66.0 °F 84% 29.83 in 3.0 mi Variable 6.9 mph - N/A   Haze
11:51 AM 73.0 °F - 66.0 °F 79% 29.82 in 5.0 mi South 6.9 mph - N/A   Haze
12:12 PM 71.1 °F - 66.9 °F 87% 29.86 in 1.8 mi South 6.9 mph - 0.00 in Rain Light Rain
12:41 PM 72.0 °F - 69.1 °F 91% 29.84 in 2.5 mi North - - 0.00 in   Overcast
12:49 PM 71.6 °F - 68.0 °F 88% 29.84 in 3.0 mi Variable 3.5 mph - 0.00 in   Overcast
12:51 PM 72.0 °F - 68.0 °F 87% 29.81 in 3.0 mi Variable 3.5 mph - 0.00 in   Overcast
1:29 PM 73.0 °F - 66.9 °F 81% 29.82 in 4.0 mi Variable 3.5 mph - N/A   Haze
1:51 PM 75.9 °F - 68.0 °F 76% 29.78 in 5.0 mi Variable 4.6 mph - N/A   Haze
2:44 PM 77.0 °F - 66.0 °F 69% 29.78 in 8.0 mi South 5.8 mph - N/A   Overcast
2:51 PM 78.1 °F - 66.0 °F 66% 29.75 in 8.0 mi Variable 4.6 mph - N/A   Overcast
3:51 PM 82.0 °F 84.1 °F 66.0 °F 58% 29.70 in 8.0 mi SSE 10.4 mph 17.3 mph N/A   Overcast
4:51 PM 84.0 °F 86.3 °F 66.0 °F 55% 29.67 in 10.0 mi South 9.2 mph 20.7 mph N/A   Scattered Clouds
5:51 PM 84.0 °F 86.3 °F 66.0 °F 55% 29.65 in 10.0 mi SE 8.1 mph - N/A   Partly Cloudy
6:51 PM 82.0 °F 84.5 °F 66.9 °F 60% 29.65 in 10.0 mi SE 6.9 mph - N/A   Scattered Clouds
7:51 PM 80.1 °F 82.3 °F 66.9 °F 64% 29.65 in 9.0 mi SSE 9.2 mph 20.7 mph N/A   Scattered Clouds
8:51 PM 78.1 °F - 68.0 °F 71% 29.65 in 7.0 mi SE 11.5 mph 19.6 mph N/A   Clear
9:51 PM 75.9 °F - 69.1 °F 79% 29.65 in 5.0 mi SE 9.2 mph - N/A   Haze
10:51 PM 75.9 °F - 69.1 °F 79% 29.65 in 5.0 mi SSE 13.8 mph 24.2 mph N/A   Haze
11:51 PM 75.0 °F - 68.0 °F 79% 29.64 in 6.0 mi SSE 10.4 mph 19.6 mph N/A   Haze